FW2982 Weather Reports


time (UTC)temp
C
wind
direction
speed
KPH
gust
KPH
rain 1hr
cm
rain 24hr
cm
rain mn
cm
humidity
%
barometer
mb
20260904044308 21 90 0.0 0.0 0.28 0.25 0.18 95 1013.0
20260904043803 21 90 0.0 1.6 0.30 0.25 0.15 95 1013.3
20260904043303 21 90 0.0 1.6 0.33 0.25 0.15 94 1013.5
20260904042803 21 90 0.0 1.6 0.36 0.25 0.13 94 1014.1
20260904042305 21 90 0.0 3.2 0.38 0.25 0.10 94 1014.3
20260904041802 21 90 1.6 3.2 0.36 0.25 0.08 94 1014.5
20260904041303 21 90 1.6 3.2 0.33 0.25 0.08 94 1014.6
20260904040802 21 89 1.6 4.8 0.30 0.25 0.05 94 1014.6
20260904040302 21 75 0.0 17.7 0.28 0.25 0.03 93 1014.7
20260904035825 21 86 3.2 8.0 0.23 0.00 0.20 93 1014.7
20260904035817 21 55 3.2 17.7 0.25 0.00 0.25 93 1014.6
20260904034802 21 313 1.6 16.1 0.20 0.00 0.18 92 1014.4
20260904034302 22 62 6.4 16.1 0.15 0.00 0.15 91 1014.5
20260904033803 23 32 4.8 25.7 0.13 0.00 0.10 91 1015.6
20260904033303 25 71 6.4 33.8 0.08 0.00 0.08 92 1015.9
20260904032803 26 286 11.3 33.8 0.03 0.00 0.03 94 1015.0
20260904032305 25 210 0.0 0.0 0.00 0.00 0.00 94 1012.6
20260904031803 25 210 0.0 1.6 0.00 0.00 0.00 94 1012.3
20260904031302 25 210 0.0 1.6 0.00 0.00 0.00 93 1011.9
20260904030803 25 209 0.0 1.6 0.00 0.00 0.00 94 1011.5
20260904030303 25 209 0.0 1.6 0.00 0.00 0.00 94 1011.4
20260904025804 25 209 0.0 0.0 0.00 0.00 0.00 93 1011.4
20260904025306 25 209 0.0 0.0 0.00 0.00 0.00 93 1011.5
20260904025039 25 209 0.0 0.0 0.00 0.00 0.00 93 1011.8
20260904024751 25 209 0.0 0.0 0.00 0.00 0.00 93 1011.7
20260904023735 25 209 0.0 0.0 0.00 0.00 0.00 93 1011.9
20260904023510 25 209 0.0 0.0 0.00 0.00 0.00 93 1012.0
20260904022730 25 209 0.0 0.0 0.00 0.00 0.00 93 1012.0
20260904022511 25 209 0.0 0.0 0.00 0.00 0.00 92 1012.1
20260904021718 25 209 0.0 0.0 0.00 0.00 0.00 92 1012.0
20260904021217 26 209 0.0 0.0 0.00 0.00 0.00 92 1012.1
20260904020717 26 209 0.0 0.0 0.00 0.00 0.00 92 1012.0
20260904020216 26 209 0.0 0.0 0.00 0.00 0.00 92 1012.1
20260904015717 26 209 0.0 0.0 0.00 0.00 0.00 92 1012.0
20260904015216 26 209 0.0 0.0 0.00 0.00 0.00 92 1012.0
20260904014708 26 209 0.0 0.0 0.00 0.00 0.00 92 1012.1
20260904014203 26 209 0.0 0.0 0.00 0.00 0.00 92 1012.0
20260904013706 26 209 0.0 0.0 0.00 0.00 0.00 91 1011.9
20260904013206 26 209 0.0 0.0 0.00 0.00 0.00 91 1012.0
20260904012703 26 209 0.0 0.0 0.00 0.00 0.00 91 1012.1
20260904012206 26 209 0.0 0.0 0.00 0.00 0.00 91 1012.0
20260904011702 26 209 0.0 0.0 0.00 0.00 0.00 91 1011.8
20260904011205 26 209 0.0 0.0 0.00 0.00 0.00 91 1011.9
20260904010702 26 209 0.0 0.0 0.00 0.00 0.00 91 1011.9
20260904010511 26 209 0.0 0.0 0.00 0.00 0.00 90 1012.0
20260904010221 26 209 0.0 0.0 0.00 0.00 0.00 91 1011.9
20260904005204 26 209 0.0 0.0 0.00 0.00 0.00 90 1011.9
20260904005156 26 209 0.0 0.0 0.00 0.00 0.00 90 1012.1
20260904004132 26 209 0.0 0.0 0.00 0.00 0.00 90 1012.3
20260904003634 26 209 0.0 0.0 0.00 0.00 0.00 90 1012.4
20260904003131 26 209 0.0 0.0 0.00 0.00 0.00 90 1012.5
20260904002633 26 209 0.0 0.0 0.00 0.00 0.00 89 1012.6
20260904002131 27 209 0.0 1.6 0.00 0.00 0.00 89 1012.6
20260904001630 27 209 0.0 1.6 0.00 0.00 0.00 88 1012.7
20260904001111 27 209 0.0 0.0 0.00 0.00 0.00 87 1012.6
20260904000609 27 209 0.0 0.0 0.00 0.00 0.00 87 1012.6
20260904000109 27 209 0.0 0.0 0.00 0.00 0.00 87 1012.7
20260903235609 27 209 0.0 0.0 0.00 0.00 0.00 86 1012.6
20260903235111 27 209 0.0 0.0 0.00 0.00 0.00 85 1012.5
20260903234609 27 209 0.0 0.0 0.00 0.00 0.00 86 1012.5
20260903234108 27 209 0.0 0.0 0.00 0.00 0.00 85 1012.3
20260903233848 27 209 0.0 0.0 0.00 0.00 0.00 85 1011.9
20260903233109 28 209 0.0 1.6 0.00 0.00 0.00 85 1011.9
20260903232604 28 209 0.0 1.6 0.00 0.00 0.00 84 1011.7
20260903232104 28 209 0.0 0.0 0.00 0.00 0.00 83 1011.8
20260903231844 28 209 0.0 0.0 0.00 0.00 0.00 83 1011.7
20260903231345 28 209 0.0 0.0 0.00 0.00 0.00 82 1011.7
20260903230558 29 209 0.0 0.0 0.00 0.00 0.00 81 1011.7
20260903230058 29 209 0.0 0.0 0.00 0.00 0.00 80 1011.6
20260903225833 29 209 0.0 0.0 0.00 0.00 0.00 80 1011.6
20260903225052 29 209 0.0 0.0 0.00 0.00 0.00 79 1011.6
20260903224552 30 209 0.0 1.6 0.00 0.00 0.00 78 1011.5
20260903224055 30 209 0.0 1.6 0.00 0.00 0.00 77 1011.5
20260903223532 30 209 0.0 1.6 0.00 0.00 0.00 76 1011.4
20260903223034 30 209 0.0 4.8 0.00 0.00 0.00 75 1011.3
20260903222532 30 209 0.0 8.0 0.00 0.00 0.00 74 1011.4
20260903222033 31 245 1.6 8.0 0.00 0.00 0.00 74 1011.3
20260903221531 31 213 0.0 3.2 0.00 0.00 0.00 74 1011.3
20260903221305 31 230 0.0 0.0 0.00 0.00 0.00 75 1011.3
20260903220518 30 230 0.0 6.4 0.00 0.00 0.00 75 1011.4
20260903220012 31 228 0.0 6.4 0.00 0.00 0.00 74 1011.3
20260903215511 31 344 1.6 4.8 0.00 0.00 0.00 73 1011.4
20260903215031 31 252 1.6 8.0 0.00 0.00 0.00 71 1011.4
20260903215023 31 224 1.6 4.8 0.00 0.00 0.00 72 1011.4
20260903214012 31 0 3.2 8.0 0.00 0.00 0.00 70 1011.3
20260903213511 31 312 0.0 4.8 0.00 0.00 0.00 72 1011.4
20260903213012 31 341 0.0 4.8 0.00 0.00 0.00 72 1011.4
20260903212507 32 303 1.6 4.8 0.00 0.00 0.00 68 1011.3
20260903212030 32 257 1.6 8.0 0.00 0.00 0.00 69 1011.5
20260903212023 32 255 1.6 8.0 0.00 0.00 0.00 67 1011.4
20260903211007 32 299 0.0 4.8 0.00 0.00 0.00 67 1011.5
20260903210505 32 303 1.6 6.4 0.00 0.00 0.00 68 1011.5
20260903210005 32 0 0.0 6.4 0.00 0.00 0.00 68 1011.5
20260903205749 32 310 3.2 4.8 0.00 0.00 0.00 66 1011.5
20260903205005 32 276 1.6 3.2 0.00 0.00 0.00 65 1011.6
20260903204505 32 288 0.0 9.7 0.00 0.00 0.00 65 1011.6
20260903204006 32 285 1.6 9.7 0.00 0.00 0.00 65 1011.7
20260903203505 32 306 1.6 6.4 0.00 0.00 0.00 66 1011.8
20260903203004 32 276 3.2 6.4 0.00 0.00 0.00 66 1011.8
20260903202504 32 251 1.6 4.8 0.00 0.00 0.00 67 1011.8
20260903202005 32 334 1.6 8.0 0.00 0.00 0.00 67 1011.8
20260903201504 32 268 4.8 8.0 0.00 0.00 0.00 67 1011.9
20260903201004 32 240 1.6 6.4 0.00 0.00 0.00 69 1012.0
20260903200505 32 230 1.6 4.8 0.00 0.00 0.00 67 1012.1
20260903200243 32 144 1.6 6.4 0.00 0.00 0.00 67 1012.1
20260903195503 32 204 3.2 6.4 0.00 0.00 0.00 66 1012.3
20260903195244 32 295 1.6 4.8 0.00 0.00 0.00 66 1012.4
20260903194504 33 286 1.6 6.4 0.00 0.00 0.00 66 1012.6
20260903194004 32 209 3.2 6.4 0.00 0.00 0.00 68 1012.6
20260903193503 32 189 1.6 6.4 0.00 0.00 0.00 68 1012.6
20260903193003 32 275 1.6 4.8 0.00 0.00 0.00 69 1012.7
20260903192744 32 274 1.6 4.8 0.00 0.00 0.00 69 1012.7
20260903192006 32 347 0.0 6.4 0.00 0.00 0.00 65 1013.0
20260903191502 32 340 1.6 6.4 0.00 0.00 0.00 67 1013.1
20260903191003 32 0 1.6 6.4 0.00 0.00 0.00 70 1013.2
20260903190504 31 351 3.2 6.4 0.00 0.00 0.00 72 1013.2
20260903185931 31 299 0.0 4.8 0.00 0.00 0.00 72 1013.4
20260903185431 31 190 1.6 4.8 0.00 0.00 0.00 72 1013.4
20260903184932 30 281 0.0 0.0 0.00 0.03 0.00 75 1013.5
20260903184710 30 281 0.0 0.0 0.00 0.03 0.00 74 1013.3
20260903183932 30 281 0.0 0.0 0.00 0.05 0.00 75 1013.5
20260903183431 30 283 0.0 0.0 0.00 0.08 0.00 77 1013.5
20260903182930 30 283 0.0 1.6 0.00 0.13 0.00 76 1013.5
20260903182520 30 275 1.6 4.8 0.00 0.33 0.00 74 1013.5
20260903182505 30 283 0.0 3.2 0.00 0.18 0.00 76 1013.4
20260903182231 30 283 0.0 4.8 0.00 0.23 0.00 74 1013.5
20260903180932 31 347 1.6 3.2 0.00 0.46 0.00 73 1013.8
20260903180711 31 285 1.6 3.2 0.00 0.46 0.00 71 1013.8
20260903175931 30 357 0.0 3.2 0.00 0.46 0.00 73 1013.9
20260903175431 30 357 0.0 3.2 0.00 0.46 0.00 71 1014.0
20260903174932 31 288 1.6 4.8 0.00 0.46 0.00 72 1013.9
20260903174431 30 290 1.6 4.8 0.00 0.46 0.00 70 1013.7
20260903173931 30 209 3.2 4.8 0.00 0.46 0.00 71 1013.8
20260903173432 30 209 0.0 4.8 0.00 0.46 0.00 73 1014.1
20260903173214 30 189 1.6 4.8 0.00 0.46 0.00 72 1014.4
20260903172712 30 275 0.0 3.2 0.00 0.46 0.00 72 1014.5
20260903171931 30 323 1.6 3.2 0.00 0.46 0.00 72 1014.7
20260903171432 30 87 0.0 3.2 0.00 0.46 0.00 72 1014.8
20260903170932 30 87 0.0 3.2 0.00 0.46 0.00 73 1014.9
20260903170433 30 89 0.0 4.8 0.00 0.46 0.00 73 1014.9
20260903170213 30 78 3.2 4.8 0.00 0.46 0.00 70 1015.1
20260903165431 30 305 0.0 4.8 0.00 0.46 0.00 74 1015.0
20260903164931 30 200 0.0 4.8 0.00 0.46 0.00 73 1015.1
20260903164433 30 165 0.0 6.4 0.00 0.46 0.00 73 1015.2
20260903163933 29 179 1.6 8.0 0.00 0.46 0.00 74 1015.4
20260903163431 29 59 3.2 8.0 0.00 0.46 0.00 76 1015.4
20260903162930 28 54 1.6 8.0 0.00 0.46 0.00 77 1015.4
20260903162711 28 58 1.6 8.0 0.00 0.46 0.00 77 1015.5
20260903161921 29 37 1.6 8.0 0.00 0.46 0.00 78 1015.7
20260903161706 28 265 3.2 4.8 0.00 0.46 0.00 79 1015.7
20260903160919 28 54 1.6 4.8 0.00 0.46 0.00 83 1015.6
20260903160415 27 299 0.0 3.2 0.00 0.46 0.00 83 1015.8
20260903160155 28 302 0.0 3.2 0.00 0.46 0.00 85 1016.0
20260903155652 27 303 1.6 8.0 0.00 0.46 0.00 85 1016.1
20260903155217 27 93 1.6 3.2 0.00 0.46 0.00 86 1016.4
20260903155212 27 307 3.2 8.0 0.00 0.46 0.00 85 1016.2
20260903153913 27 327 0.0 1.6 0.00 0.46 0.00 85 1016.5
20260903153410 27 327 0.0 4.8 0.00 0.46 0.00 84 1016.4
20260903152911 27 327 1.6 4.8 0.00 0.46 0.00 84 1015.7
20260903152412 27 314 0.0 3.2 0.00 0.46 0.00 85 1015.6
20260903151912 27 293 1.6 3.2 0.00 0.46 0.00 85 1015.7
20260903151650 27 238 0.0 3.2 0.00 0.46 0.00 85 1015.7
20260903150909 27 238 1.6 8.0 0.00 0.46 0.00 84 1015.7
20260903150652 27 240 1.6 8.0 0.00 0.46 0.00 86 1015.7
20260903145909 27 336 0.0 4.8 0.00 0.46 0.00 86 1015.6
20260903145407 27 292 0.0 3.2 0.00 0.46 0.00 86 1015.5
20260903144909 26 300 0.0 3.2 0.00 0.46 0.00 87 1015.4
20260903144408 27 298 0.0 3.2 0.00 0.46 0.00 87 1015.5
20260903143907 27 299 0.0 4.8 0.00 0.46 0.00 86 1015.5
20260903143403 27 299 1.6 4.8 0.00 0.46 0.00 88 1015.5
20260903142904 26 6 0.0 3.2 0.00 0.46 0.00 89 1015.5
20260903142404 26 337 0.0 3.2 0.00 0.46 0.00 90 1015.5
20260903141903 26 337 0.0 3.2 0.00 0.46 0.00 90 1015.3
20260903141404 26 338 0.0 3.2 0.00 0.46 0.00 92 1015.4
20260903140903 25 102 1.6 3.2 0.00 0.46 0.00 93 1015.2
20260903140403 25 228 0.0 3.2 0.00 0.46 0.00 95 1015.0
20260903135906 25 214 0.0 3.2 0.00 0.46 0.00 96 1015.1
20260903135641 25 214 0.0 3.2 0.00 0.46 0.00 97 1015.2
20260903134903 23 214 0.0 3.2 0.00 0.46 0.00 97 1015.1
20260903134645 23 190 0.0 3.2 0.00 0.46 0.00 97 1015.0
20260903133902 23 190 0.0 3.2 0.00 0.46 0.00 97 1014.9
20260903133402 23 190 1.6 4.8 0.00 0.46 0.00 97 1015.2
20260903132904 23 189 1.6 6.4 0.00 0.46 0.00 97 1015.1
20260903132402 23 127 0.0 6.4 0.00 0.46 0.00 97 1015.4
20260903131902 23 41 1.6 4.8 0.00 0.46 0.00 97 1015.3
20260903131404 23 210 0.0 4.8 0.00 0.46 0.00 97 1015.5
20260903130902 23 185 1.6 4.8 0.00 0.46 0.00 97 1015.6
20260903130404 23 76 0.0 1.6 0.00 0.46 0.00 97 1015.8
20260903125902 23 76 0.0 0.0 0.00 0.46 0.00 97 1016.0
20260903125403 23 76 0.0 1.6 0.00 0.46 0.00 97 1016.0
20260903124902 23 76 0.0 3.2 0.00 0.46 0.00 98 1016.2
20260903124403 22 75 0.0 3.2 0.00 0.46 0.00 97 1016.1
20260903123902 22 75 0.0 4.8 0.00 0.46 0.00 97 1016.2
20260903123401 22 75 1.6 4.8 0.00 0.46 0.00 97 1016.3
20260903122903 22 65 0.0 3.2 0.00 0.46 0.00 97 1016.3
20260903122640 22 65 0.0 4.8 0.00 0.46 0.00 97 1016.3
20260903121902 22 65 0.0 4.8 0.00 0.46 0.00 97 1016.4
20260903121641 22 68 0.0 4.8 0.00 0.46 0.00 97 1016.4
20260903120903 22 35 1.6 6.4 0.00 0.46 0.00 97 1016.4
20260903120403 22 59 1.6 6.4 0.00 0.46 0.00 97 1016.6
20260903115905 22 52 1.6 4.8 0.00 0.46 0.00 97 1016.6
20260903115403 22 52 0.0 6.4 0.00 0.46 0.00 97 1016.5
20260903114903 22 52 1.6 6.4 0.00 0.46 0.00 97 1016.5
20260903114404 22 44 1.6 4.8 0.00 0.46 0.00 97 1016.5
20260903113902 22 298 0.0 4.8 0.00 0.46 0.00 97 1016.6
20260903113403 22 235 1.6 6.4 0.00 0.46 0.00 97 1016.5
20260903112903 22 54 1.6 6.4 0.00 0.46 0.00 97 1016.4
20260903112640 22 63 1.6 6.4 0.00 0.46 0.00 97 1016.4
20260903111902 22 58 0.0 6.4 0.00 0.46 0.00 97 1016.2
20260903111403 22 66 0.0 0.0 0.00 0.46 0.00 97 1016.3
20260903110902 22 66 0.0 0.0 0.00 0.46 0.00 97 1015.7
20260903110401 22 66 0.0 0.0 0.00 0.46 0.00 97 1015.5
20260903105918 22 66 0.0 0.0 0.00 0.46 0.00 97 1015.5
20260903105911 22 66 0.0 0.0 0.00 0.46 0.00 97 1015.5
20260903104856 22 66 0.0 0.0 0.00 0.46 0.00 97 1015.4
20260903104635 21 66 0.0 0.0 0.00 0.46 0.00 97 1015.4
20260903103853 21 66 0.0 0.0 0.00 0.46 0.00 97 1015.3
20260903103631 21 66 0.0 0.0 0.00 0.46 0.00 97 1015.1
20260903102850 21 66 0.0 0.0 0.00 0.46 0.00 97 1015.0
20260903102349 21 66 0.0 0.0 0.00 0.46 0.00 97 1014.6
20260903101847 21 66 0.0 0.0 0.00 0.46 0.00 97 1014.6
20260903101409 21 66 0.0 0.0 0.00 0.46 0.00 97 1014.5
20260903101401 21 66 0.0 0.0 0.00 0.46 0.00 97 1014.6
20260903100344 21 66 0.0 0.0 0.00 0.46 0.00 97 1014.4
20260903095841 21 66 0.0 0.0 0.00 0.46 0.00 97 1014.4
20260903095342 21 66 0.0 0.0 0.00 0.46 0.00 97 1014.5
20260903094837 21 66 0.0 0.0 0.00 0.46 0.00 97 1014.5
20260903094335 21 66 0.0 0.0 0.00 0.46 0.00 97 1014.6
20260903093835 21 66 0.0 0.0 0.00 0.46 0.00 97 1014.6
20260903093331 21 66 0.0 0.0 0.00 0.46 0.00 97 1014.6
20260903092832 21 66 0.0 0.0 0.00 0.46 0.00 97 1014.7
20260903092331 21 66 0.0 0.0 0.00 0.46 0.00 97 1014.8
20260903091830 21 66 0.0 0.0 0.00 0.46 0.00 97 1014.7
20260903091330 21 66 0.0 0.0 0.00 0.46 0.00 97 1014.7
20260903090831 21 66 0.0 0.0 0.00 0.46 0.00 97 1014.7
20260903090332 21 66 0.0 0.0 0.00 0.46 0.00 97 1014.7
20260903085827 21 66 0.0 0.0 0.00 0.46 0.00 97 1014.6
20260903085328 21 66 0.0 0.0 0.00 0.46 0.00 97 1014.5
20260903084822 21 66 0.0 0.0 0.00 0.46 0.00 97 1014.6
20260903084322 21 66 0.0 0.0 0.00 0.46 0.00 97 1014.5
20260903084104 21 66 0.0 0.0 0.00 0.46 0.00 97 1014.4
20260903083323 21 66 0.0 0.0 0.00 0.46 0.00 97 1014.4
20260903082817 21 66 0.0 0.0 0.00 0.46 0.00 97 1014.3
20260903082316 21 66 0.0 0.0 0.00 0.46 0.00 97 1014.3
20260903081817 21 66 0.0 0.0 0.00 0.46 0.00 97 1014.4
20260903081316 21 66 0.0 0.0 0.00 0.46 0.00 97 1014.6
20260903081048 21 66 0.0 0.0 0.00 0.46 0.00 97 1014.6
20260903080307 21 66 0.0 1.6 0.00 0.46 0.00 97 1014.5
20260903075808 21 66 0.0 1.6 0.00 0.46 0.00 97 1014.6
20260903075308 21 66 0.0 0.0 0.00 0.46 0.00 97 1014.6
20260903074804 21 66 0.0 0.0 0.00 0.46 0.00 97 1014.6
20260903074303 21 66 0.0 0.0 0.00 0.46 0.00 97 1014.6
20260903073803 21 66 0.0 0.0 0.00 0.46 0.00 97 1014.5
20260903073304 21 66 0.0 0.0 0.00 0.46 0.00 97 1014.5
20260903072805 21 66 0.0 0.0 0.00 0.46 0.00 97 1014.4
20260903072306 21 66 0.0 3.2 0.00 0.46 0.00 97 1014.5
20260903072041 21 66 0.0 3.2 0.00 0.46 0.00 97 1014.4
20260903071303 21 66 0.0 1.6 0.00 0.46 0.00 97 1014.5
20260903070804 21 66 0.0 4.8 0.00 0.46 0.00 97 1014.3
20260903070304 21 66 0.0 4.8 0.00 0.46 0.00 97 1014.3
20260903065802 21 144 0.0 3.2 0.00 0.46 0.00 97 1014.2
20260903065305 21 144 0.0 0.0 0.00 0.46 0.00 97 1014.2
20260903064802 21 144 0.0 0.0 0.00 0.46 0.00 97 1014.3
20260903064301 21 144 0.0 0.0 0.00 0.46 0.00 97 1014.4
20260903063828 21 144 0.0 3.2 0.00 0.46 0.00 97 1014.6
20260903063818 21 144 0.0 1.6 0.00 0.46 0.00 97 1014.5
20260903062803 21 144 0.0 3.2 0.00 0.46 0.00 97 1014.4
20260903062542 21 52 0.0 1.6 0.00 0.46 0.00 97 1014.4
20260903061802 21 52 0.0 3.2 0.00 0.46 0.00 97 1014.3
20260903061302 21 52 0.0 3.2 0.00 0.46 0.00 97 1014.3
20260903060802 21 51 0.0 3.2 0.00 0.46 0.00 97 1014.5
20260903060302 21 51 1.6 3.2 0.00 0.46 0.00 97 1014.6
20260903055803 21 51 0.0 1.6 0.00 0.46 0.00 97 1014.5
20260903055306 21 97 0.0 1.6 0.00 0.46 0.00 97 1014.5
20260903054802 21 73 0.0 0.0 0.00 0.46 0.00 97 1014.6
20260903054302 21 73 0.0 0.0 0.00 0.46 0.00 96 1014.7
20260903053802 21 73 0.0 0.0 0.00 0.46 0.00 96 1014.8
20260903053326 21 73 0.0 0.0 0.00 0.46 0.00 96 1014.8
20260903053318 21 73 0.0 0.0 0.00 0.46 0.00 96 1014.8
20260903052541 21 73 0.0 0.0 0.00 0.46 0.00 96 1014.8
20260903051803 21 73 0.0 0.0 0.00 0.46 0.00 96 1014.8
20260903051259 21 73 0.0 0.0 0.00 0.46 0.00 96 1014.9
20260903050800 21 73 0.0 0.0 0.00 0.46 0.00 96 1015.0
20260903050300 22 73 0.0 0.0 0.00 0.46 0.00 96 1015.1
20260903045749 22 73 0.0 0.0 0.00 0.46 0.00 96 1015.0
20260903045251 22 73 0.0 0.0 0.00 0.46 0.00 96 1015.1
20260903044747 22 73 0.0 0.0 0.00 0.46 0.00 96 1015.1